Meteo orario Allanche

Oggi, 30 Ottobre, Venerdi

Tempo Temperatura Precipitazioni Vento Pressione Umidità
00:00 +4°C° 0 mm 0 m/s 673 mm Hg 96%
01:00 +4°C° 0 mm 0 m/s 673 mm Hg 95%
02:00 +4°C° 0 mm 0 m/s 673 mm Hg 95%
03:00 +4°C° 0 mm 0 m/s 673 mm Hg 94%
04:00 +4°C° 0 mm 0 m/s 673 mm Hg 93%
05:00 +4°C° 0 mm 0 m/s 673 mm Hg 92%
06:00 +4°C° 0 mm 0 m/s 673 mm Hg 91%
07:00 +6°C° 0 mm 0 m/s 674 mm Hg 85%
08:00 +8°C° 0 mm 0 m/s 674 mm Hg 80%
09:00 +10°C° 0 mm 0 m/s 675 mm Hg 75%
10:00 +11°C° 0 mm 0 m/s 675 mm Hg 67%
11:00 +13°C° 0 mm 0 m/s 675 mm Hg 59%
12:00 +15°C° 0 mm 0 m/s 675 mm Hg 51%
13:00 +14°C° 0 mm 0 m/s 675 mm Hg 55%
14:00 +14°C° 0 mm 0 m/s 675 mm Hg 59%
15:00 +14°C° 0 mm 0 m/s 674 mm Hg 63%
16:00 +12°C° 0 mm 1 m/s 674 mm Hg 70%
17:00 +10°C° 0 mm 1 m/s 673 mm Hg 78%
18:00 +8°C° 0 mm 1 m/s 672 mm Hg 85%
19:00 +8°C° 0 mm 1 m/s 672 mm Hg 82%
20:00 +7°C° 0 mm 1 m/s 673 mm Hg 80%
21:00 +7°C° 0 mm 1 m/s 673 mm Hg 77%
22:00 +7°C° 0 mm 1 m/s 673 mm Hg 72%
23:00 +7°C° 0 mm 1 m/s 672 mm Hg 66%

Domani, 31 Ottobre, Sabato

Tempo Temperatura Precipitazioni Vento Pressione Umidità
00:00 +7°C° 0 mm 1 m/s 672 mm Hg 61%
01:00 +7°C° 0 mm 1 m/s 672 mm Hg 58%
02:00 +7°C° 0 mm 1 m/s 672 mm Hg 55%
03:00 +7°C° 0 mm 1 m/s 671 mm Hg 51%
04:00 +7°C° 0 mm 1 m/s 671 mm Hg 50%
05:00 +7°C° 0 mm 1 m/s 671 mm Hg 50%
06:00 +7°C° 0 mm 1 m/s 671 mm Hg 49%
07:00 +9°C° 0 mm 1 m/s 672 mm Hg 48%
08:00 +11°C° 0 mm 1 m/s 673 mm Hg 48%
09:00 +13°C° 0 mm 1 m/s 673 mm Hg 48%
10:00 +15°C° 0 mm 2 m/s 673 mm Hg 46%
11:00 +16°C° 0 mm 2 m/s 673 mm Hg 44%
12:00 +17°C° 0 mm 2 m/s 673 mm Hg 42%
13:00 +17°C° 0 mm 2 m/s 673 mm Hg 47%
14:00 +16°C° 0 mm 2 m/s 673 mm Hg 52%
15:00 +16°C° 0 mm 2 m/s 672 mm Hg 57%
16:00 +13°C° 0 mm 2 m/s 672 mm Hg 63%
17:00 +10°C° 0 mm 2 m/s 671 mm Hg 69%
18:00 +9°C° 0 mm 1 m/s 671 mm Hg 75%
19:00 +8°C° 0 mm 1 m/s 671 mm Hg 75%
20:00 +8°C° 0 mm 1 m/s 671 mm Hg 74%
21:00 +7°C° 0 mm 1 m/s 671 mm Hg 74%
22:00 +7°C° 0 mm 1 m/s 671 mm Hg 73%
23:00 +8°C° 0 mm 1 m/s 671 mm Hg 73%

Dopodomani, 1 Novenbre, Domenica

Tempo Temperatura Precipitazioni Vento Pressione Umidità
00:00 +8°C° 0 mm 1 m/s 671 mm Hg 72%
01:00 +8°C° 0 mm 1 m/s 671 mm Hg 74%
02:00 +8°C° 0 mm 1 m/s 671 mm Hg 75%
03:00 +8°C° 0 mm 1 m/s 671 mm Hg 76%
04:00 +8°C° 0 mm 1 m/s 671 mm Hg 78%
05:00 +8°C° 0 mm 1 m/s 671 mm Hg 79%
06:00 +9°C° 0 mm 1 m/s 671 mm Hg 81%
07:00 +9°C° 0 mm 2 m/s 671 mm Hg 75%
08:00 +12°C° 0 mm 2 m/s 672 mm Hg 70%
09:00 +14°C° 0 mm 2 m/s 672 mm Hg 65%
10:00 +14°C° 0 mm 2 m/s 672 mm Hg 61%
11:00 +14°C° 0 mm 3 m/s 672 mm Hg 57%
12:00 +16°C° 0 mm 3 m/s 672 mm Hg 53%
13:00 +16°C° 0 mm 2 m/s 672 mm Hg 60%
14:00 +15°C° 0 mm 2 m/s 672 mm Hg 66%
15:00 +15°C° 0 mm 2 m/s 671 mm Hg 72%
16:00 +13°C° 0 mm 1 m/s 671 mm Hg 78%
17:00 +12°C° 0 mm 1 m/s 671 mm Hg 83%
18:00 +11°C° 0 mm 1 m/s 671 mm Hg 88%
19:00 +10°C° 0 mm 1 m/s 671 mm Hg 89%
20:00 +9°C° 0 mm 2 m/s 671 mm Hg 89%
21:00 +9°C° 0 mm 2 m/s 670 mm Hg 89%
22:00 +9°C° 0 mm 2 m/s 670 mm Hg 89%
23:00 +9°C° 0 mm 2 m/s 670 mm Hg 88%

2 Novenbre, Lunedi

Tempo Temperatura Precipitazioni Vento Pressione Umidità
00:00 +10°C° 0 mm 2 m/s 670 mm Hg 88%
01:00 +9°C° 0 mm 2 m/s 670 mm Hg 88%
02:00 +9°C° 0 mm 2 m/s 670 mm Hg 88%
03:00 +9°C° 0 mm 2 m/s 669 mm Hg 88%
04:00 +9°C° 0 mm 2 m/s 669 mm Hg 87%
05:00 +9°C° 0 mm 2 m/s 669 mm Hg 87%
06:00 +9°C° 0 mm 2 m/s 669 mm Hg 86%
07:00 +12°C° 0 mm 2 m/s 670 mm Hg 79%
08:00 +13°C° 0 mm 2 m/s 670 mm Hg 71%
09:00 +15°C° 0 mm 2 m/s 671 mm Hg 63%
10:00 +16°C° 0 mm 3 m/s 671 mm Hg 58%
11:00 +17°C° 0 mm 3 m/s 671 mm Hg 53%
12:00 +18°C° 0 mm 4 m/s 671 mm Hg 48%
13:00 +18°C° 0 mm 3 m/s 671 mm Hg 53%
14:00 +17°C° 0 mm 2 m/s 671 mm Hg 58%
15:00 +17°C° 0 mm 2 m/s 670 mm Hg 63%
16:00 +15°C° 0 mm 2 m/s 670 mm Hg 73%
17:00 +12°C° 0 mm 2 m/s 670 mm Hg 82%
18:00 +9°C° 0 mm 2 m/s 669 mm Hg 91%
19:00 +9°C° 0 mm 2 m/s 669 mm Hg 92%
20:00 +9°C° 0 mm 2 m/s 669 mm Hg 92%
21:00 +9°C° 0 mm 2 m/s 669 mm Hg 93%
22:00 +9°C° 0 mm 2 m/s 669 mm Hg 92%
23:00 +9°C° 0 mm 2 m/s 669 mm Hg 92%

3 Novenbre, Martedi

Tempo Temperatura Precipitazioni Vento Pressione Umidità
00:00 +9°C° 0 mm 2 m/s 669 mm Hg 91%
01:00 +9°C° 0.1 mm 2 m/s 669 mm Hg 92%
02:00 +10°C° 0.1 mm 2 m/s 670 mm Hg 92%
03:00 +10°C° 0.1 mm 2 m/s 670 mm Hg 93%
04:00 +10°C° 1.1 mm 2 m/s 670 mm Hg 94%
05:00 +9°C° 1.1 mm 2 m/s 670 mm Hg 96%
06:00 +9°C° 1.1 mm 3 m/s 671 mm Hg 97%
07:00 +8°C° 1.4 mm 2 m/s 671 mm Hg 96%
08:00 +7°C° 1.4 mm 2 m/s 671 mm Hg 95%
09:00 +6°C° 1.4 mm 2 m/s 671 mm Hg 95%
10:00 +6°C° 0.7 mm 2 m/s 672 mm Hg 92%
11:00 +6°C° 0.7 mm 2 m/s 672 mm Hg 89%
12:00 +5°C° 0.7 mm 2 m/s 673 mm Hg 87%
13:00 +5°C° 0.2 mm 2 m/s 673 mm Hg 87%
14:00 +5°C° 0.2 mm 2 m/s 673 mm Hg 87%
15:00 +5°C° 0.2 mm 2 m/s 673 mm Hg 88%
16:00 +5°C° 0 mm 1 m/s 673 mm Hg 89%
17:00 +5°C° 0 mm 1 m/s 674 mm Hg 91%
18:00 +4°C° 0 mm 1 m/s 674 mm Hg 92%
19:00 +4°C° 0 mm 1 m/s 674 mm Hg 93%
20:00 +3°C° 0 mm 1 m/s 674 mm Hg 93%
21:00 +3°C° 0 mm 1 m/s 674 mm Hg 94%
22:00 +2°C° 0 mm 1 m/s 674 mm Hg 95%
23:00 +1°C° 0 mm 1 m/s 674 mm Hg 95%

4 Novenbre, Mercoledi

Tempo Temperatura Precipitazioni Vento Pressione Umidità
00:00 +1°C° 0 mm 1 m/s 674 mm Hg 96%
01:00 +1°C° 0 mm 1 m/s 673 mm Hg 96%
02:00 -1°C° 0 mm 0 m/s 673 mm Hg 96%
03:00 -1°C° 0 mm 0 m/s 673 mm Hg 96%
04:00 -1°C° 0 mm 0 m/s 673 mm Hg 95%
05:00 0°C° 0 mm 1 m/s 673 mm Hg 94%
06:00 0°C° 0 mm 1 m/s 673 mm Hg 93%
07:00 +1°C° 0 mm 1 m/s 673 mm Hg 90%
08:00 +2°C° 0 mm 1 m/s 674 mm Hg 87%
09:00 +3°C° 0 mm 2 m/s 674 mm Hg 84%
10:00 +3°C° 0 mm 2 m/s 674 mm Hg 79%
11:00 +4°C° 0 mm 2 m/s 674 mm Hg 74%
12:00 +5°C° 0 mm 2 m/s 673 mm Hg 70%
13:00 +4°C° 0 mm 2 m/s 673 mm Hg 70%
14:00 +3°C° 0 mm 3 m/s 673 mm Hg 71%
15:00 +3°C° 0 mm 3 m/s 672 mm Hg 72%
16:00 +2°C° 0 mm 3 m/s 672 mm Hg 76%
17:00 +1°C° 0 mm 3 m/s 672 mm Hg 80%
18:00 +1°C° 0 mm 2 m/s 672 mm Hg 85%
19:00 +1°C° 0 mm 2 m/s 672 mm Hg 88%
20:00 -1°C° 0 mm 3 m/s 672 mm Hg 92%
21:00 -1°C° 0 mm 3 m/s 672 mm Hg 95%
22:00 -1°C° 0 mm 3 m/s 672 mm Hg 95%
23:00 -1°C° 0 mm 3 m/s 672 mm Hg 95%
Mostrare altro

Abbiamo bisogno del tuo consenso

Meteoprog e i nostri fornitori di servizi possono memorizzare e accedere a dati personali come cookie, identificatori di dispositivi o altre tecnologie simili sul tuo dispositivo e possono elaborare tali dati per personalizzare i contenuti e gli annunci, nonché fornire funzionalità dei social media e analizzarne il traffico.

  • Archiviare e/o accedere alle informazioni sul tuo dispositivo

    Cookie, identificatori di dispositivi o altre informazioni possono essere memorizzati o resi accessibili sul tuo dispositivo per le finalità sopra indicate.

  • Annunci e contenuti personalizzati, misurazione di annunci e contenuti, approfondimenti sul pubblico e sviluppo di prodotti

    Gli annunci e i contenuti possono essere personalizzati in base a un profilo. È possibile aggiungere più dati per personalizzare meglio annunci e contenuti. È possibile misurare il rendimento degli annunci e dei contenuti. È possibile ricavare informazioni sul pubblico che ha visto gli annunci e i contenuti. Tali dati possono essere utilizzati per sviluppare o migliorare l'esperienza, i sistemi e il software dell'utente.

Cliccando su “Accetto”, acconsenti all'uso di cookie, identificatori di dispositivo, web beacon o altre tecnologie simili. Puoi modificare le impostazioni nel browser del tuo dispositivo.

Per determinati scopi, è possibile fare affidamento su interessi legali, piuttosto che sul consenso. Puoi approfondire questo argomento consultando la nostra Informativa sulla privacy e sui cookie.